When you browse on this site, cookies collect data to enhance your experience and personalize the content and advertising you see.
Visit our Privacy Policy to learn more. By continuing to use the site, you agree to this use of cookies and data.
  • In Romania
  • List of Countries
  • For 7 days
  • Water Temperature
  • Satellite Maps
  • Weather Map
  • Weather Widgets
  • user-avatar
    Login

    Hourly Weather Barinas

    Today, 21 March, Thursday

    Time Temperature Precipitation Wind Pressure Humidity
    00:00 +30°C° 0 mm 3 mps 742 mmHg 44%
    01:00 +30°C° 0 mm 2 mps 742 mmHg 45%
    02:00 +30°C° 0 mm 2 mps 742 mmHg 45%
    03:00 +30°C° 0 mm 2 mps 742 mmHg 44%
    04:00 +30°C° 0 mm 2 mps 742 mmHg 44%
    05:00 +30°C° 0 mm 2 mps 743 mmHg 45%
    06:00 +30°C° 0 mm 2 mps 743 mmHg 46%
    07:00 +30°C° 0 mm 2 mps 744 mmHg 48%
    08:00 +32°C° 0 mm 2 mps 744 mmHg 46%
    09:00 +34°C° 0 mm 2 mps 744 mmHg 44%
    10:00 +36°C° 0 mm 3 mps 744 mmHg 41%
    11:00 +37°C° 0 mm 2 mps 743 mmHg 39%
    12:00 +37°C° 0 mm 2 mps 742 mmHg 37%
    13:00 +37°C° 0 mm 1 mps 742 mmHg 36%
    14:00 +37°C° 0 mm 1 mps 741 mmHg 35%
    15:00 +37°C° 0 mm 1 mps 741 mmHg 35%
    16:00 +37°C° 0 mm 1 mps 740 mmHg 34%
    17:00 +36°C° 0.3 mm 2 mps 740 mmHg 39%
    18:00 +34°C° 0.3 mm 2 mps 740 mmHg 44%
    19:00 +33°C° 0.3 mm 3 mps 741 mmHg 49%
    20:00 +31°C° 0.2 mm 3 mps 741 mmHg 50%
    21:00 +32°C° 0.2 mm 4 mps 742 mmHg 52%
    22:00 +30°C° 0.2 mm 4 mps 742 mmHg 53%
    23:00 +30°C° 0.4 mm 4 mps 742 mmHg 54%

    Tomorrow, 22 March, Friday

    Time Temperature Precipitation Wind Pressure Humidity
    00:00 +30°C° 0.4 mm 4 mps 742 mmHg 55%
    01:00 +29°C° 0.4 mm 4 mps 742 mmHg 57%
    02:00 +29°C° 0.3 mm 3 mps 742 mmHg 57%
    03:00 +29°C° 0.3 mm 3 mps 742 mmHg 57%
    04:00 +29°C° 0.3 mm 2 mps 742 mmHg 57%
    05:00 +29°C° 0.2 mm 2 mps 742 mmHg 57%
    06:00 +29°C° 0.2 mm 1 mps 743 mmHg 58%
    07:00 +29°C° 0.2 mm 1 mps 744 mmHg 58%
    08:00 +30°C° 0 mm 1 mps 744 mmHg 58%
    09:00 +30°C° 0 mm 2 mps 744 mmHg 57%
    10:00 +30°C° 0 mm 3 mps 745 mmHg 56%
    11:00 +33°C° 0 mm 3 mps 744 mmHg 50%
    12:00 +35°C° 0 mm 3 mps 743 mmHg 44%
    13:00 +36°C° 0 mm 3 mps 742 mmHg 39%
    14:00 +37°C° 0 mm 2 mps 742 mmHg 37%
    15:00 +37°C° 0 mm 2 mps 741 mmHg 36%
    16:00 +36°C° 0 mm 1 mps 740 mmHg 35%
    17:00 +36°C° 0 mm 2 mps 741 mmHg 37%
    18:00 +34°C° 0 mm 2 mps 741 mmHg 40%
    19:00 +32°C° 0 mm 2 mps 741 mmHg 42%
    20:00 +31°C° 0.2 mm 3 mps 742 mmHg 44%
    21:00 +31°C° 0.2 mm 3 mps 742 mmHg 46%
    22:00 +30°C° 0.2 mm 3 mps 743 mmHg 47%
    23:00 +30°C° 0.4 mm 3 mps 743 mmHg 49%

    Day after tomorrow, 23 March, Saturday

    Time Temperature Precipitation Wind Pressure Humidity
    00:00 +30°C° 0.4 mm 3 mps 743 mmHg 52%
    01:00 +29°C° 0.4 mm 3 mps 742 mmHg 54%
    02:00 +29°C° 0.5 mm 3 mps 742 mmHg 56%
    03:00 +29°C° 0.5 mm 2 mps 742 mmHg 58%
    04:00 +28°C° 0.5 mm 2 mps 742 mmHg 61%
    05:00 +28°C° 0.4 mm 2 mps 743 mmHg 60%
    06:00 +29°C° 0.4 mm 1 mps 744 mmHg 60%
    07:00 +29°C° 0.4 mm 1 mps 744 mmHg 59%
    08:00 +30°C° 0 mm 2 mps 745 mmHg 55%
    09:00 +31°C° 0 mm 2 mps 745 mmHg 50%
    10:00 +33°C° 0 mm 3 mps 746 mmHg 46%
    11:00 +34°C° 0 mm 3 mps 745 mmHg 43%
    12:00 +35°C° 0 mm 3 mps 744 mmHg 39%
    13:00 +36°C° 0 mm 3 mps 743 mmHg 36%
    14:00 +36°C° 0 mm 3 mps 742 mmHg 35%
    15:00 +36°C° 0 mm 3 mps 742 mmHg 35%
    16:00 +36°C° 0 mm 3 mps 741 mmHg 34%
    17:00 +35°C° 0 mm 3 mps 742 mmHg 36%
    18:00 +34°C° 0 mm 3 mps 742 mmHg 37%
    19:00 +31°C° 0 mm 3 mps 742 mmHg 39%
    20:00 +31°C° 0.1 mm 3 mps 743 mmHg 40%
    21:00 +31°C° 0.1 mm 3 mps 743 mmHg 41%
    22:00 +31°C° 0.1 mm 3 mps 744 mmHg 42%
    23:00 +31°C° 0.1 mm 3 mps 743 mmHg 43%

    24 March, Sunday

    Time Temperature Precipitation Wind Pressure Humidity
    00:00 +30°C° 0.1 mm 3 mps 743 mmHg 44%
    01:00 +30°C° 0.1 mm 2 mps 743 mmHg 45%
    02:00 +30°C° 0.1 mm 2 mps 743 mmHg 46%
    03:00 +30°C° 0.1 mm 2 mps 743 mmHg 47%
    04:00 +29°C° 0.1 mm 2 mps 742 mmHg 49%
    05:00 +29°C° 0 mm 1 mps 743 mmHg 50%
    06:00 +29°C° 0 mm 1 mps 744 mmHg 50%
    07:00 +30°C° 0 mm 1 mps 744 mmHg 51%
    08:00 +31°C° 0 mm 1 mps 745 mmHg 48%
    09:00 +32°C° 0 mm 2 mps 745 mmHg 45%
    10:00 +34°C° 0 mm 2 mps 745 mmHg 42%
    11:00 +34°C° 0 mm 2 mps 744 mmHg 40%
    12:00 +34°C° 0 mm 2 mps 743 mmHg 39%
    13:00 +35°C° 0 mm 3 mps 742 mmHg 38%
    14:00 +35°C° 0 mm 3 mps 742 mmHg 38%
    15:00 +35°C° 0 mm 3 mps 741 mmHg 38%
    16:00 +35°C° 0 mm 3 mps 740 mmHg 38%
    17:00 +33°C° 0.1 mm 3 mps 741 mmHg 40%
    18:00 +31°C° 0.1 mm 3 mps 741 mmHg 42%
    19:00 +30°C° 0.1 mm 3 mps 741 mmHg 44%
    20:00 +30°C° 0.5 mm 3 mps 742 mmHg 46%
    21:00 +30°C° 0.5 mm 3 mps 742 mmHg 48%
    22:00 +29°C° 0.5 mm 3 mps 743 mmHg 50%
    23:00 +29°C° 0.1 mm 3 mps 742 mmHg 50%

    25 March, Monday

    Time Temperature Precipitation Wind Pressure Humidity
    00:00 +29°C° 0.1 mm 3 mps 742 mmHg 50%
    01:00 +29°C° 0.1 mm 3 mps 742 mmHg 50%
    02:00 +29°C° 0 mm 2 mps 742 mmHg 51%
    03:00 +29°C° 0 mm 2 mps 741 mmHg 52%
    04:00 +29°C° 0 mm 1 mps 741 mmHg 53%
    05:00 +29°C° 0 mm 1 mps 742 mmHg 54%
    06:00 +29°C° 0 mm 1 mps 743 mmHg 54%
    07:00 +29°C° 0 mm 1 mps 743 mmHg 54%
    08:00 +30°C° 0 mm 2 mps 744 mmHg 51%
    09:00 +31°C° 0 mm 2 mps 744 mmHg 48%
    10:00 +33°C° 0 mm 3 mps 744 mmHg 44%
    11:00 +34°C° 0 mm 2 mps 743 mmHg 41%
    12:00 +35°C° 0 mm 2 mps 742 mmHg 38%
    13:00 +36°C° 0 mm 2 mps 741 mmHg 35%
    14:00 +36°C° 0 mm 2 mps 740 mmHg 36%
    15:00 +35°C° 0 mm 3 mps 740 mmHg 37%
    16:00 +35°C° 0 mm 4 mps 739 mmHg 38%
    17:00 +34°C° 0 mm 3 mps 740 mmHg 40%
    18:00 +33°C° 0 mm 3 mps 740 mmHg 41%
    19:00 +31°C° 0 mm 3 mps 741 mmHg 42%
    20:00 +31°C° 0 mm 3 mps 741 mmHg 42%
    21:00 +31°C° 0 mm 3 mps 741 mmHg 42%
    22:00 +31°C° 0 mm 2 mps 742 mmHg 42%
    23:00 +31°C° 0 mm 2 mps 741 mmHg 43%

    26 March, Tuesday

    Time Temperature Precipitation Wind Pressure Humidity
    00:00 +31°C° 0 mm 2 mps 741 mmHg 44%
    01:00 +30°C° 0 mm 2 mps 741 mmHg 44%
    02:00 +30°C° 0 mm 2 mps 741 mmHg 46%
    03:00 +30°C° 0 mm 2 mps 741 mmHg 48%
    04:00 +30°C° 0 mm 2 mps 741 mmHg 49%
    05:00 +30°C° 0 mm 2 mps 742 mmHg 50%
    06:00 +30°C° 0 mm 2 mps 742 mmHg 51%
    07:00 +30°C° 0 mm 1 mps 743 mmHg 52%
    08:00 +31°C° 0 mm 2 mps 743 mmHg 48%
    09:00 +32°C° 0 mm 2 mps 743 mmHg 45%
    10:00 +35°C° 0 mm 3 mps 744 mmHg 41%
    11:00 +36°C° 0 mm 2 mps 743 mmHg 38%
    12:00 +37°C° 0 mm 2 mps 742 mmHg 35%
    13:00 +38°C° 0 mm 2 mps 741 mmHg 32%
    14:00 +38°C° 0 mm 2 mps 740 mmHg 31%
    15:00 +38°C° 0 mm 2 mps 739 mmHg 31%
    16:00 +38°C° 0 mm 2 mps 739 mmHg 30%
    17:00 +37°C° 0 mm 2 mps 739 mmHg 33%
    18:00 +35°C° 0 mm 3 mps 740 mmHg 36%
    19:00 +34°C° 0 mm 3 mps 740 mmHg 39%
    20:00 +33°C° 0 mm 3 mps 741 mmHg 40%
    21:00 +33°C° 0 mm 3 mps 741 mmHg 41%
    22:00 +31°C° 0 mm 2 mps 742 mmHg 42%
    23:00 +31°C° 0 mm 2 mps 741 mmHg 42%
    Show more